KOSEN 1
1 49402U 21102H   25336.85101341  .00010945  00000-0  46196-3 0  9995
2 49402  97.3493  17.9488 0014816 174.3822 185.7584 15.23350974224094
HO-113
1 50466U 21131B   25336.86028501  .00000839  00000-0  27434-3 0  9991
2 50466  98.5061  65.3316 0003544 341.9865  18.1198 14.41089892206831
SNUGLITE 2
1 52899U 22065F   25336.82232071  .00001845  00000-0  36290-3 0  9993
2 52899  98.1923 117.4116 0006402 281.8622  78.1862 14.63788559182266
UmKA 1 (RS40S)
1 57172U 23091G   25336.85493639  .00008989  00000-0  44464-3 0  9992
2 57172  97.5362  31.3636 0015079  84.6110 275.6844 15.17951497134193
CubeBel-2 (EU11S)
1 57175U 23091K   25336.80548167  .00017611  00000-0  73605-3 0  9998
2 57175  97.5363  33.7140 0012434  87.5508 272.7152 15.23604469134346
RS-38S
1 57189U 23091Z   25336.89021492  .00019937  00000-0  71121-3 0  9993
2 57189  97.5388  38.1660 0009458  55.2142 304.9986 15.28881926134626
SONATE-2
1 59112U 24043Q   25336.35268847  .00034290  00000-0  74522-3 0  9994
2 59112  97.5320 112.2226 0008945 199.6820 160.4084 15.44228160 97375
MO-122
1 60209U 24125G   25336.81941568  .00039925  00000-0  83348-3 0  9999
2 60209  97.2537 187.1894 0013581 216.9359 143.0956 15.45324666 79076
GRBBeta
1 60237U 24128C   25336.84961995  .00006097  00000-0  43185-3 0  9991
2 60237  61.9894 184.1510 0056624  94.7360 266.0201 15.04594883 76703
Curium One
1 60242U 24128H   25336.85437816  .00010914  00000-0  68189-3 0  9992
2 60242  61.9785 179.2427 0056481  91.7383 269.0181 15.08596665 76796
ROBUSTA-3A
1 60243U 24128J   25336.85349894  .00009733  00000-0  62012-3 0  9997
2 60243  61.9860 180.7354 0056413  89.1720 271.5837 15.07986181 76777
CatSat
1 60246U 24125J   25336.86325324  .00045707  00000-0  11395-2 0  9998
2 60246  97.2334 184.3594 0033899 180.3454 179.7775 15.39471498 77007
HYPERVIEW-1G (RS66S)
1 61772U 24199AP  25336.91257097  .00049111  00000-0  97956-3 0  9992
2 61772  97.3226 206.2311 0008338 283.0945  76.9374 15.46676059104091
AO-123
1 61781U 24199AY  25336.87382005  .00014005  00000-0  45969-3 0  9996
2 61781  97.3263 202.4328 0013226 295.8317  64.1560 15.31617936103834
ZIMSAT 2
1 61783U 24199BA  25336.85687792  .00196862  00000-0  17190-2 0  9993
2 61783  97.3118 209.3615 0003135 271.1101  88.9801 15.68340219107457
HADES-R (SO-124)
1 62690U 25009CK  25336.22549996  .00154330  00000-0  22897-2 0  9990
2 62690  97.3904  58.4728 0002077 220.7581 139.3518 15.54675419 49147
HYDRA-T
1 62692U 25009CM  25336.21475099  .00169943  00000-0  23910-2 0  9996
2 62692  97.3907  58.6386 0001982 230.0500 130.0581 15.56072820 49151
JINJUSat 1B
1 63210U 25052A   25336.69022850  .00020735  00000-0  80303-3 0  9991
2 63210  97.4210 228.9112 0006027  68.3636 291.8244 15.26180761 40055
NUSHSAT 1
1 63211U 25052B   25336.69221366  .00025083  00000-0  94235-3 0  9995
2 63211  97.4192 229.0215 0006068  71.0413 289.1483 15.27149929 40068
TEVEL2-4
1 63213U 25052D   25336.68877976  .00022996  00000-0  88117-3 0  9992
2 63213  97.4115 228.5901 0005189  82.0378 278.1449 15.26517468 40051
TEVEL2-5
1 63214U 25052E   25336.69376345  .00023562  00000-0  90453-3 0  9994
2 63214  97.4108 228.5846 0005231  82.4969 277.6864 15.26450188 40050
TEVEL2-6
1 63215U 25052F   25336.63520355  .00023007  00000-0  88476-3 0  9997
2 63215  97.4114 228.5153 0005307  83.5456 276.6386 15.26398173 40048
TEVEL2-1
1 63217U 25052H   25336.67575931  .00022661  00000-0  87983-3 0  9990
2 63217  97.4089 228.3746 0005271  90.9317 269.2526 15.26082608 40042
TEVEL2-3
1 63218U 25052J   25336.67510025  .00022706  00000-0  88103-3 0  9999
2 63218  97.4091 228.3790 0005266  92.6893 267.4948 15.26102169 40040
TEVEL2-2
1 63219U 25052K   25336.67653708  .00022631  00000-0  87863-3 0  9995
2 63219  97.4085 228.3755 0005285  91.6987 268.4857 15.26083498 40042
TEVEL2-9
1 63237U 25052AD  25336.69541551  .00020771  00000-0  84235-3 0  9992
2 63237  97.4154 228.1150 0008930 108.6426 251.5782 15.24617514 40010
TEVEL2-7
1 63238U 25052AE  25336.64272361  .00020913  00000-0  85175-3 0  9990
2 63238  97.4154 228.0392 0008984 109.0297 251.1914 15.24472124 40006
TEVEL2-8
1 63239U 25052AF  25336.64818822  .00020972  00000-0  85483-3 0  9996
2 63239  97.4150 228.0292 0008979 109.4976 250.7232 15.24444862 40000
HYDRA-W
1 63490U 25052BL  25336.69809803  .00078502  00000-0  19861-2 0  9997
2 63490  97.4078 230.3482 0011400  96.7663 263.4880 15.39410474 40175
HADES-ICM (SO-125)
1 63492U 25052BN  25336.68085892  .00070807  00000-0  18973-2 0  9995
2 63492  97.4086 230.0891 0011420 100.6562 259.5969 15.37675429 40155
Dragonfly
1 65729U 98067XH  25336.80835911  .00149213  00000-0  12965-2 0  9998
2 65729  51.6253 186.4705 0006468 216.4679 143.5877 15.68060646 11608
RSP-03
1 65732U 98067XL  25336.85465471  .00120540  00000-0  11616-2 0  9991
2 65732  51.6273 186.7826 0006827 191.7215 168.3622 15.65600923 11610
GHS-01
1 65733U 98067XM  25336.83887637  .00180652  00000-0  14391-2 0  9995
2 65733  51.6280 185.9293 0006994 215.3541 144.6993 15.70056093 11626
BOTAN
1 65942U 98067XP  25335.96627064  .00095633  00000-0  11467-2 0  9991
2 65942  51.6290 193.6047 0004543 166.4057 193.7060 15.60127991  8180
CEVROSAT1
1 98526U 25248E   25313.13142326  .00000000  00000-0  19360-3 0    02
2 98526  45.4084 218.4764 0001315 254.8982 242.1062 15.17981583    02
